Theta_e
340 339 337 336 330 324 326 329 328 326 329 329 325 317 311 312 314 313 312 311 317 323 320 312 310 311 313 315 318 317 312 312 315 317 316 319 315 317 319 321 325 326 326
337 338 337 336 336 326 326 329 327 327 330 326 318 311 311 311 312 310 315 322 320 314 311 311 313 316 318 322 323 322 320 317 312 317 324 325 325 320 313 314 316 323 325
337 338 337 337 337 330 327 330 328 329 327 320 311 310 310 311 310 317 321 319 314 312 313 313 318 321 322 325 326 326 324 318 313 310 314 320 326 318 313 322 326 325 324
335 336 339 338 337 333 331 330 329 330 327 315 310 310 311 312 314 319 319 316 313 312 311 313 319 321 322 322 323 323 322 321 319 308 308 309 313 314 313 311 318 324 323
332 330 331 335 332 330 327 330 330 329 320 311 311 313 318 314 317 318 317 313 312 312 312 314 321 321 321 322 322 322 322 320 320 305 305 305 306 309 306 307 313 320 321
331 334 329 327 330 329 331 328 329 328 316 310 314 326 319 317 317 317 313 313 313 313 313 315 321 320 321 321 321 321 319 306 305 305 305 305 307 309 306 304 305 315 317
335 327 331 329 331 335 332 332 331 328 312 310 327 330 321 318 317 313 313 314 313 312 310 315 320 319 320 321 320 320 319 312 306 305 305 305 307 308 308 308 309 312 310
337 336 337 337 326 323 335 332 332 332 324 316 327 328 320 318 315 313 314 314 313 310 309 311 318 317 320 321 320 319 318 314 309 305 304 304 308 308 308 309 309 309 308
337 335 334 331 327 322 322 331 324 318 309 320 327 327 323 318 314 314 315 314 312 309 308 308 317 316 317 318 319 319 317 315 312 305 305 304 307 308 310 308 308 305 304
334 334 333 332 327 325 321 324 320 318 316 322 326 327 325 317 315 315 315 314 311 309 308 307 313 316 316 316 317 317 316 314 312 308 305 304 304 305 304 305 305 304 303
331 332 331 330 329 325 323 323 322 322 321 324 325 326 325 316 315 316 315 316 314 310 308 308 309 314 316 315 314 313 313 312 310 308 304 305 304 304 303 305 305 303 302
330 330 330 328 326 324 323 323 323 317 321 322 323 323 323 316 315 316 317 318 317 314 309 309 309 310 313 313 313 311 310 309 308 308 306 305 305 304 303 302 303 302 301
328 328 327 326 325 325 324 323 320 321 317 317 321 323 322 316 316 317 318 318 318 318 316 313 311 311 310 309 310 310 308 308 309 308 306 305 305 305 304 302 302 303 301
329 327 327 325 325 324 323 323 319 316 322 322 321 322 319 315 316 317 318 318 318 318 318 317 316 313 311 309 308 309 308 308 309 310 310 308 306 305 305 303 303 302 302
327 327 327 326 326 324 322 321 317 325 322 323 321 317 317 315 316 315 316 317 318 318 318 318 318 316 313 310 308 308 308 308 309 311 311 310 309 306 304 305 307 304 302
326 325 327 326 325 324 322 319 317 320 319 320 319 316 315 315 314 315 314 315 317 317 318 319 318 319 316 313 310 309 309 310 309 311 311 310 309 308 307 307 305 304 304
324 324 325 326 324 324 322 320 314 317 318 318 317 316 315 315 315 314 314 314 316 317 318 318 318 319 318 317 312 310 310 310 309 310 310 310 309 308 309 307 307 306 305
323 322 323 323 323 320 317 317 320 318 317 318 317 317 318 317 317 314 314 317 318 318 319 319 318 319 318 317 316 313 311 310 310 309 310 310 308 308 308 309 307 306 305
321 321 322 322 322 315 316 320 320 320 319 316 315 316 315 315 316 315 318 318 318 318 320 320 319 319 318 317 316 316 316 316 310 310 311 310 309 308 308 307 307 306 304
319 321 321 322 319 317 314 315 317 320 317 316 315 314 315 316 315 316 316 315 315 320 320 321 320 319 319 318 316 316 316 314 311 309 312 312 311 309 309 307 305 305 304
317 318 320 320 318 316 315 316 316 316 316 315 314 314 318 317 315 314 313 314 317 318 318 320 320 320 320 318 317 314 314 313 311 308 312 312 311 310 309 307 306 305 305
318 318 318 318 316 315 314 315 316 315 315 314 314 316 318 319 319 315 314 315 313 315 320 321 321 321 320 319 317 315 314 312 310 309 310 312 312 310 309 307 305 304 305
318 318 318 317 317 315 315 315 317 316 315 314 314 316 317 316 317 318 318 318 315 318 320 320 322 322 322 321 318 316 313 312 312 311 310 311 312 310 309 307 306 305 305
318 318 318 318 318 317 316 318 317 314 314 314 313 315 315 313 315 316 317 317 317 319 319 319 321 322 322 322 318 317 317 314 313 312 312 312 312 310 309 307 306 306 306
318 317 318 318 318 318 317 315 314 314 313 313 314 315 312 313 317 318 318 318 317 319 320 320 321 322 322 321 320 320 318 316 313 312 312 311 310 310 309 307 307 306 305
317 317 317 317 317 316 315 315 316 317 317 316 314 313 313 312 315 316 317 319 319 320 320 320 322 322 321 320 320 319 318 317 314 313 312 311 310 308 308 306 305 306 304
Wind_Speed
15 21 26 30 23 26 26 26 26 26 25 23 22 22 24 24 24 23 24 25 27 26 24 25 25 25 25 25 26 25 23 20 19 19 19 21 20 19 18 19 21 22 22
22 23 26 26 33 28 27 26 24 23 22 23 23 25 27 27 26 26 29 29 28 27 27 27 26 26 26 25 25 25 24 23 18 19 23 24 24 22 19 17 20 21 21
22 20 21 24 29 28 25 27 26 25 23 22 25 28 29 29 30 31 30 29 28 28 28 28 29 27 25 24 22 18 19 21 19 16 20 22 23 21 20 23 24 23 23
18 17 21 27 31 30 22 27 28 26 24 23 27 30 31 32 33 32 30 29 28 28 28 28 27 25 22 21 19 17 17 16 16 13 16 17 19 19 19 19 21 22 21
24 22 23 26 24 30 33 30 31 29 26 26 29 31 33 34 34 32 32 29 28 29 29 28 28 27 20 19 19 17 14 10 9 12 15 16 17 16 16 17 19 20 19
25 24 31 28 35 34 47 41 31 28 25 29 29 30 32 34 34 32 31 30 28 28 28 29 29 23 18 17 17 17 15 14 14 13 15 16 17 16 16 16 17 18 17
12 15 14 22 26 33 38 44 39 34 28 31 31 31 32 34 34 33 30 30 28 27 28 30 28 21 17 16 16 15 15 14 16 14 15 15 16 17 17 18 18 18 16
11 16 21 27 12 29 40 44 41 36 30 34 32 31 33 35 34 32 30 28 27 26 25 27 27 22 17 16 14 13 15 15 17 16 15 16 16 17 17 18 17 17 16
13 14 15 23 14 26 49 42 38 38 41 38 34 33 34 34 33 32 29 28 27 25 24 25 27 23 18 12 11 11 12 12 15 16 13 14 15 16 17 17 17 16 15
11 18 22 19 21 23 19 15 27 32 40 39 36 34 33 34 32 30 28 28 26 25 24 24 25 24 19 13 10 9 9 11 12 13 12 13 14 14 14 14 14 14 13
12 15 19 16 12 3 9 17 17 22 35 38 36 33 33 33 32 29 28 27 25 24 24 24 23 22 19 12 9 8 7 9 10 11 11 11 11 12 13 13 13 13 13
9 8 11 10 13 17 17 21 35 37 28 33 34 34 32 32 32 30 27 26 25 23 21 20 19 19 18 11 8 7 5 6 7 9 10 10 10 10 10 10 10 10 10
9 10 10 15 16 19 22 33 38 42 35 32 32 32 32 32 31 30 27 24 23 20 18 15 14 14 13 11 10 6 4 5 6 9 10 9 9 7 7 7 7 7 8
13 13 13 17 19 28 36 39 36 39 41 41 38 33 30 32 30 28 25 22 19 17 15 13 11 10 9 10 9 7 4 4 5 7 9 8 7 6 4 4 5 6 7
16 22 18 20 22 28 40 39 42 39 39 39 39 37 32 31 27 23 22 20 17 16 14 11 10 7 6 8 7 6 4 3 3 5 6 6 6 5 5 4 4 5 7
20 23 25 25 30 33 37 38 41 37 37 36 36 36 33 29 25 24 20 17 16 14 12 8 8 6 7 7 7 6 4 3 2 1 3 4 4 4 6 5 6 7 10
20 25 35 29 30 33 39 42 43 40 39 38 36 33 32 26 23 20 17 17 15 12 10 8 7 8 7 5 6 5 5 4 4 4 4 5 3 3 6 6 8 8 9
19 19 26 29 31 33 38 46 43 42 40 38 37 31 27 22 18 18 16 14 13 12 9 6 9 8 6 5 5 5 4 5 7 7 6 6 5 6 9 10 9 10 11
16 18 28 30 31 38 40 44 37 37 40 40 35 29 28 23 18 17 15 15 13 11 10 11 12 11 8 9 8 8 8 8 8 8 8 8 8 10 12 12 13 14 15
17 17 27 34 31 35 38 44 36 36 39 39 35 33 34 21 19 18 16 14 14 15 16 17 16 14 13 14 13 13 14 13 12 12 12 12 11 12 14 14 14 15 16
20 22 24 34 31 37 37 41 42 42 38 35 38 41 23 18 20 19 19 17 18 21 19 18 19 19 19 19 17 20 21 20 21 18 15 16 15 15 15 15 15 15 16
25 29 31 33 31 35 35 41 43 43 37 41 39 32 24 23 23 22 21 21 21 23 22 22 23 22 21 22 23 23 20 23 26 24 22 20 19 18 19 19 18 18 18
28 33 35 35 36 39 42 38 36 40 35 44 45 34 27 27 24 21 21 21 24 27 25 23 24 23 23 23 27 23 11 15 18 27 30 24 21 21 21 22 21 22 23
30 32 36 37 38 39 39 37 39 41 42 48 46 36 30 30 28 26 24 24 27 26 25 25 24 25 26 26 27 31 32 23 11 8 19 18 23 24 24 24 24 26 26
32 34 35 36 37 40 41 39 41 40 40 42 42 37 35 33 30 30 29 28 29 29 31 29 28 29 27 27 31 32 32 33 29 16 14 20 23 23 24 23 23 24 27
34 34 37 39 42 45 43 41 39 36 36 37 39 37 34 33 33 34 33 31 30 30 31 32 31 29 28 27 31 36 33 32 33 30 24 27 27 22 23 23 23 28 24
Wind_Direction
169 177 174 170 170 177 174 171 166 164 159 154 152 150 147 144 143 139 136 133 130 126 122 121 120 117 115 111 105 101 100 100 102 98 97 93 98 100 97 97 99 93 88
157 180 178 188 181 186 178 175 168 163 159 156 153 148 143 140 138 136 134 129 125 123 123 122 119 117 114 107 103 98 101 96 104 99 94 93 90 90 91 94 90 92 98
164 171 183 184 181 187 187 178 171 168 163 158 152 147 143 141 138 135 131 128 127 124 123 121 119 113 110 111 111 102 97 89 86 96 105 95 90 90 92 88 86 86 87
151 168 178 187 189 182 213 183 176 174 169 162 154 148 144 141 138 136 132 129 127 125 124 123 119 114 109 109 109 109 88 79 72 86 89 96 94 88 89 92 91 90 89
193 205 204 196 207 218 201 194 181 174 166 158 153 148 143 140 137 135 133 130 128 126 125 126 120 115 115 107 102 94 82 65 72 82 88 89 90 90 93 93 96 91 90
227 240 225 226 208 214 223 217 182 171 164 157 152 148 144 139 135 135 133 130 128 127 127 128 127 125 127 116 108 97 75 75 86 90 92 92 89 89 89 91 94 95 92
220 195 197 192 206 205 178 189 177 169 161 157 153 150 146 140 137 136 132 129 128 127 126 129 131 128 132 128 119 105 87 83 76 83 87 87 88 89 88 89 93 96 92
238 192 182 178 46 6 185 187 180 171 168 162 155 153 148 142 138 135 133 130 128 126 127 131 131 115 115 123 125 108 89 79 67 73 81 84 87 87 87 93 93 88 86
214 218 216 151 167 341 353 167 163 157 161 155 156 155 148 141 139 135 133 129 125 124 124 131 137 124 112 128 119 112 89 74 65 62 75 83 87 88 91 87 85 83 81
204 195 198 205 224 302 52 76 133 150 151 155 156 155 148 140 138 135 132 127 123 122 121 127 140 140 132 129 121 105 92 74 62 59 72 81 85 88 89 89 87 83 78
184 199 211 221 230 122 118 160 151 146 153 155 157 155 149 142 140 135 131 125 122 122 125 130 139 146 148 151 144 112 92 74 61 60 68 74 79 77 79 83 77 73 69
264 251 235 214 167 153 158 167 159 152 152 155 157 159 150 145 142 138 134 130 127 130 129 132 139 142 149 159 156 128 100 72 52 48 60 62 69 73 73 68 65 61 62
200 221 206 174 174 172 164 161 157 159 154 159 165 157 155 150 147 144 139 135 132 132 137 134 129 132 129 150 166 149 123 82 62 51 49 45 47 59 66 66 62 51 60
223 229 204 187 177 168 168 172 160 154 165 161 162 163 161 155 152 148 144 138 139 141 137 131 132 134 126 144 157 145 131 110 78 66 44 32 25 25 35 44 47 45 48
218 208 214 204 191 175 169 165 160 165 163 161 161 163 166 159 152 150 153 153 152 156 142 144 129 130 144 144 156 166 166 145 94 64 41 19 1 345 350 10 40 4 355
213 207 206 193 179 178 173 168 166 163 162 163 167 167 163 157 163 162 160 161 172 171 153 145 138 160 174 159 158 172 179 178 176 61 355 347 336 4 349 334 338 330 328
215 192 188 195 180 177 178 177 171 167 169 167 163 157 159 164 170 170 169 174 176 180 178 168 181 182 179 173 182 189 207 218 235 248 284 308 316 336 322 304 301 308 308
215 197 189 181 176 174 170 165 166 168 166 160 160 161 159 163 173 178 179 174 185 193 194 200 218 215 203 215 217 218 236 255 260 254 275 306 288 275 293 281 277 282 286
214 196 189 187 183 179 176 169 164 168 167 165 165 168 169 181 184 186 187 193 201 211 212 231 234 230 239 242 239 255 267 281 268 279 280 285 285 275 288 285 278 286 289
201 205 197 184 179 177 176 181 174 174 174 177 171 173 181 196 197 198 206 214 222 229 227 237 241 235 239 239 243 252 266 269 263 264 264 263 276 277 289 284 282 288 295
191 187 185 177 179 178 186 184 185 183 182 186 179 185 195 205 211 213 218 221 223 226 232 241 247 243 236 231 238 238 245 254 253 252 257 261 262 268 281 272 275 279 294
185 189 183 184 185 188 188 186 187 190 191 192 194 196 203 210 218 222 231 234 236 234 234 241 243 245 239 236 233 234 241 245 245 247 249 257 268 275 277 272 270 271 289
189 190 193 194 191 189 189 197 196 200 204 196 196 205 210 217 223 227 232 239 236 236 239 250 252 248 245 245 238 236 227 226 251 249 245 250 258 261 270 274 274 279 287
193 191 193 194 197 197 195 198 198 194 196 200 203 207 211 223 226 233 238 242 239 246 249 258 259 257 249 252 239 238 241 245 228 223 233 245 254 255 259 261 266 274 278
201 195 195 198 199 195 193 192 189 192 197 199 205 210 222 225 230 237 240 242 240 245 251 255 255 251 244 254 248 252 246 243 238 224 245 254 261 260 250 253 262 266 270
202 199 194 193 191 187 188 193 198 203 204 207 214 222 227 230 236 240 241 243 247 252 251 253 254 249 259 266 258 259 246 242 240 241 251 260 257 258 264 257 257 257 254